Theta_e
312 315 316 316 316 315 317 317 321 318 315 316 318 317 312 309 311 311 310 309 308 308 309 311 312 314 315 315 315 316 314 314 313 312 311 311 309 309 309 310 310 310 310 310
314 315 314 314 315 315 316 317 318 318 315 313 314 316 312 309 310 311 310 309 308 307 308 310 311 312 312 313 313 313 312 312 311 311 311 310 309 309 309 310 309 309 309 309
314 314 313 313 314 315 315 316 318 319 317 312 314 317 313 310 308 308 309 309 307 307 308 308 309 310 311 312 312 311 311 310 310 310 310 310 309 308 308 308 308 308 308 308
313 311 313 313 314 314 315 314 316 315 317 320 315 325 317 313 309 308 307 307 306 306 307 308 308 308 309 309 310 309 309 309 309 309 309 309 308 307 307 307 307 307 307 307
312 312 313 314 314 313 315 313 315 317 318 317 315 319 320 312 312 310 308 307 306 304 306 307 307 307 307 307 308 307 307 307 307 307 307 306 306 306 307 306 306 306 306 306
312 308 311 313 312 312 312 314 314 316 317 322 319 318 321 315 314 313 309 307 305 303 305 306 306 306 305 306 306 306 306 306 305 305 305 306 305 305 305 305 305 305 305 305
311 311 309 309 312 311 313 313 319 320 321 319 314 318 319 314 311 311 310 307 304 302 302 305 305 306 305 305 304 305 305 304 304 304 304 304 304 304 304 304 303 303 303 303
314 315 311 310 312 313 312 313 316 318 318 317 311 316 317 306 304 304 307 306 302 300 300 303 303 303 304 303 303 304 304 303 304 303 303 303 303 302 302 302 301 301 301 300
313 315 308 309 310 313 314 315 313 315 310 316 315 313 311 303 302 304 304 301 300 297 299 300 301 301 301 302 302 303 302 303 303 303 302 301 301 300 300 300 300 299 297 293
310 313 309 309 309 309 314 314 315 317 318 317 316 315 316 309 306 302 301 300 298 296 296 298 299 301 301 300 299 300 301 300 300 300 300 300 300 300 298 295 292 290 290 289
308 310 309 309 311 314 314 315 315 315 315 317 318 316 311 310 307 303 301 300 298 295 297 298 298 297 298 297 298 299 299 298 299 299 299 298 296 292 290 290 289 289 289 289
307 310 312 312 308 307 313 313 315 316 316 315 315 315 304 304 303 303 301 299 296 295 296 297 297 297 297 296 297 297 296 297 297 296 294 292 290 289 289 289 289 288 288 288
308 312 314 311 310 306 310 312 314 315 312 317 317 317 302 302 302 301 300 297 295 294 294 295 295 295 294 295 295 294 295 295 294 292 290 289 289 288 288 288 288 288 288 288
307 310 311 313 310 312 311 311 312 315 318 317 317 316 308 304 303 300 299 297 295 293 293 294 294 294 294 293 293 293 293 291 290 289 288 288 288 288 287 287 287 287 287 288
309 310 310 310 309 309 310 312 312 314 316 317 316 315 314 309 304 301 299 296 294 293 292 293 294 294 294 293 292 290 290 289 288 288 287 287 287 287 287 287 287 287 287 287
309 311 309 308 309 308 310 310 311 312 314 315 314 313 306 304 304 300 298 296 295 293 293 294 295 294 293 292 291 289 288 288 287 287 287 287 287 286 286 286 286 286 286 286
309 311 309 312 310 308 309 309 310 311 311 313 314 313 302 302 301 301 298 296 296 295 293 293 293 294 293 292 291 289 288 287 287 286 286 286 286 286 286 286 286 285 285 285
307 309 311 312 310 312 310 308 308 309 309 310 310 311 309 307 304 303 301 302 297 296 295 295 296 294 293 291 289 288 287 287 286 286 286 286 286 286 286 286 285 285 284 284
308 309 311 313 312 310 310 305 306 308 309 308 309 309 308 302 301 300 300 301 304 300 299 299 297 295 293 291 289 287 287 286 286 286 286 286 286 285 285 285 285 284 284 283
308 309 310 312 313 315 310 306 304 307 310 309 307 308 309 300 306 310 305 304 299 299 300 299 297 295 294 291 288 287 287 286 286 286 285 285 285 285 285 284 284 284 283 283
307 309 310 312 313 313 307 302 307 311 310 308 308 307 305 304 308 308 308 302 299 299 298 298 298 297 294 291 288 287 286 286 286 285 285 285 285 284 284 284 284 283 282 282
308 310 311 311 313 313 301 304 309 309 305 304 305 306 304 303 304 305 306 302 298 298 298 298 297 296 293 290 289 287 286 286 286 285 285 284 284 284 284 284 283 282 282 281
303 307 311 311 311 301 302 306 307 306 304 303 303 304 304 301 301 303 302 298 297 296 297 297 297 295 292 289 288 287 286 286 285 285 284 284 284 284 284 283 282 282 281 281
299 292 298 305 306 300 300 303 305 305 305 304 301 301 301 300 301 301 300 297 295 294 296 297 296 295 292 289 288 287 286 286 285 285 284 284 284 284 283 282 282 281 281 281
300 294 296 297 299 295 296 302 305 305 304 302 301 301 300 299 300 302 298 296 294 294 296 297 297 295 293 290 287 286 285 285 285 284 284 284 283 283 282 282 281 281 281 281
293 301 301 303 301 299 301 300 301 303 305 304 302 301 299 300 301 299 298 297 296 296 296 296 296 295 292 290 288 286 285 285 285 284 284 284 283 282 282 282 281 281 281 281
Wind_Speed
5 7 9 11 9 2 5 5 7 5 3 7 15 12 9 8 8 9 9 7 7 7 8 9 10 10 10 9 8 8 6 5 4 3 2 0 3 6 6 7 8 10 10 11
5 14 9 9 9 5 7 3 5 6 2 2 5 12 9 11 10 11 11 10 10 8 7 9 9 9 9 9 7 6 5 4 5 5 4 4 4 7 7 8 8 9 8 9
12 1 13 9 9 9 6 10 9 4 9 1 2 8 8 9 11 12 12 12 12 12 11 8 8 8 9 9 8 6 5 5 6 7 6 5 5 7 7 7 6 6 6 7
10 4 12 9 13 13 10 7 11 8 10 4 8 4 8 14 14 17 18 19 17 16 15 12 8 7 7 8 8 7 6 7 6 7 7 7 7 7 7 5 5 5 5 6
8 12 12 12 13 12 6 6 13 15 9 4 5 5 5 7 14 17 24 23 20 18 18 15 12 9 7 8 8 7 7 7 7 7 7 8 8 8 7 4 2 1 3 5
5 1 7 9 8 14 6 5 5 3 6 7 14 8 8 8 11 19 26 26 23 21 20 17 15 12 11 9 8 10 8 6 7 8 8 8 8 9 7 6 5 4 3 4
7 4 2 3 8 5 11 10 3 4 5 6 1 11 13 6 8 10 25 29 26 22 22 20 17 13 12 11 12 10 9 8 9 8 7 8 8 8 7 6 5 5 5 6
14 10 11 8 11 9 19 17 6 5 4 3 3 7 5 1 1 4 16 25 24 22 20 21 18 16 12 13 13 11 10 11 9 8 7 8 8 8 8 9 10 11 12 13
14 15 2 6 4 13 11 13 10 1 0 3 5 4 6 4 2 8 17 22 23 22 22 21 19 17 16 16 15 14 14 11 10 10 10 11 13 14 14 14 13 13 14 14
5 8 3 3 3 1 6 13 8 5 4 6 6 6 9 7 13 11 17 24 23 20 20 20 19 18 18 17 17 16 14 14 14 14 15 15 15 14 13 13 14 14 14 13
4 3 3 5 13 16 7 7 7 4 9 3 3 4 1 2 10 18 21 23 23 21 22 21 20 20 19 19 18 17 17 17 18 17 16 15 14 14 13 13 13 13 13 12
5 2 5 13 1 5 17 20 20 10 6 6 9 9 4 2 3 15 21 23 23 23 23 23 23 22 21 21 21 21 21 20 18 16 16 15 15 14 13 13 13 12 11 10
9 5 4 2 5 3 8 12 16 14 2 13 9 6 2 2 6 14 21 23 23 23 24 25 25 25 24 24 24 24 22 20 19 17 16 16 15 14 13 13 12 10 9 9
10 9 15 16 7 8 10 14 17 18 12 14 22 19 7 6 8 14 20 24 25 26 28 28 28 28 27 27 26 25 23 21 19 18 17 15 15 14 13 12 11 10 9 8
5 14 18 12 7 5 8 16 20 23 31 18 21 24 22 13 15 21 23 26 28 28 29 32 32 31 31 30 28 26 24 22 21 19 17 16 15 14 13 11 10 8 7 6
4 11 5 13 13 4 5 11 21 28 27 30 23 25 2 3 11 20 26 30 31 32 34 34 34 34 35 34 31 28 26 24 22 20 18 17 16 14 13 11 9 8 6 5
8 7 7 17 11 5 8 27 21 20 23 24 25 28 7 8 16 26 30 35 42 43 38 38 38 39 38 36 33 31 28 25 23 21 19 18 16 14 12 11 9 7 6 4
5 15 11 12 7 11 22 10 26 22 19 23 26 14 18 23 33 30 39 43 41 42 43 43 44 42 40 37 34 31 29 26 24 22 20 18 16 15 13 11 9 8 5 3
16 10 6 8 14 10 14 10 11 12 24 22 27 23 26 13 11 19 32 41 46 50 49 48 47 45 42 39 36 33 31 28 25 22 21 19 18 16 13 11 10 8 5 3
19 19 12 6 8 10 34 12 13 6 19 24 29 23 21 20 10 20 39 42 44 44 47 50 49 46 43 41 38 35 32 29 26 24 22 20 18 16 14 12 10 8 6 5
14 14 19 17 10 8 5 6 23 12 13 12 32 34 31 17 33 19 27 43 45 46 48 49 49 49 46 43 40 37 33 29 26 24 22 21 19 16 14 13 11 10 8 7
10 11 16 19 17 22 11 15 24 19 4 6 8 24 38 42 16 21 26 40 46 51 50 49 50 50 48 44 42 38 34 30 26 24 23 21 19 17 15 14 12 11 9 9
7 5 8 12 18 2 36 20 35 26 8 9 13 18 31 29 24 24 29 37 45 49 51 49 50 51 48 45 42 39 35 31 27 25 23 21 19 18 17 15 14 12 11 12
7 1 2 6 7 8 31 26 23 26 16 13 14 15 25 31 27 27 31 37 42 47 49 50 52 51 49 47 43 38 34 30 27 24 22 21 21 19 18 17 15 14 14 14
4 7 3 6 12 7 18 39 35 29 20 13 13 16 23 28 29 29 33 36 40 46 49 51 52 51 50 48 44 39 35 31 28 25 23 23 22 21 19 18 17 16 16 16
8 13 7 7 7 6 14 20 34 25 27 19 16 19 23 28 30 29 30 32 37 44 48 50 50 50 48 46 43 41 37 33 29 26 25 24 23 21 21 20 19 18 17 17
Wind_Direction
165 200 199 190 208 331 181 191 187 200 196 218 225 227 203 187 191 179 169 169 147 138 125 130 137 149 152 164 181 200 203 213 218 228 197 40 74 77 76 59 58 59 55 49
160 223 205 201 202 195 190 202 195 175 127 204 203 233 194 196 208 203 184 193 172 160 155 153 155 159 164 172 178 184 189 199 202 183 175 159 115 95 87 76 64 57 47 44
199 150 189 180 200 205 211 221 194 233 194 2 139 247 214 216 215 204 200 203 193 181 190 175 171 175 176 181 188 187 186 176 170 164 156 139 124 112 103 82 70 54 39 26
219 170 171 190 214 209 234 212 192 149 171 221 201 267 216 200 204 209 203 203 197 191 195 195 194 191 193 192 182 180 178 176 176 174 177 182 174 136 112 96 72 47 26 25
177 182 181 202 210 199 213 173 195 208 227 270 195 248 218 191 215 213 208 203 198 193 193 194 198 204 201 185 173 176 185 186 186 185 163 152 139 134 130 123 108 73 35 39
177 139 198 213 196 202 147 115 113 119 238 252 226 210 233 193 213 216 204 203 193 193 189 190 192 196 198 185 181 186 185 187 181 166 153 143 139 140 140 145 151 140 108 84
189 188 212 186 177 172 190 194 197 211 205 244 235 209 244 202 216 219 197 195 191 188 187 186 192 194 202 190 192 185 182 186 172 164 148 140 142 140 154 156 150 127 106 87
196 211 185 176 208 186 200 208 206 230 215 224 147 230 243 13 111 237 189 190 182 184 188 188 188 194 195 197 194 189 189 188 177 170 163 149 143 143 139 128 117 113 102 90
203 212 183 186 158 183 189 216 238 253 45 272 226 251 240 176 174 166 168 178 181 183 188 189 190 193 195 197 191 189 188 185 175 163 150 139 132 127 122 116 111 104 96 90
216 210 200 155 157 187 225 171 191 221 244 244 238 254 249 221 209 188 185 186 182 182 184 188 193 197 197 195 187 181 179 173 160 151 141 136 131 127 121 117 113 108 101 96
200 258 138 156 206 194 176 194 216 241 230 254 293 237 258 278 192 193 194 191 185 182 185 189 193 191 191 186 181 175 170 164 153 148 145 142 137 131 128 125 118 113 108 103
192 213 186 207 38 291 228 216 208 219 210 248 267 255 155 185 198 195 190 186 185 188 189 191 192 191 186 181 174 169 164 160 156 155 150 146 142 139 137 131 124 117 112 103
172 207 205 220 231 199 225 211 220 226 314 232 228 245 22 239 207 189 184 185 183 183 187 190 190 188 184 177 172 169 166 165 163 159 156 153 148 146 144 137 129 124 116 107
182 221 221 222 231 176 210 213 217 210 222 227 235 252 226 221 200 183 187 186 184 186 190 191 189 188 183 179 174 173 171 169 167 163 162 160 156 154 149 144 138 130 120 109
206 230 231 248 264 201 226 207 205 211 227 225 248 237 243 216 209 201 188 185 185 189 192 194 192 188 184 181 179 177 175 173 172 170 169 168 164 161 158 152 144 137 126 109
236 248 217 244 218 209 240 230 215 222 224 239 244 256 333 294 182 183 190 189 194 194 197 197 194 190 187 185 182 180 179 177 175 175 175 174 171 167 162 158 154 145 133 114
202 224 214 247 222 187 264 232 221 230 228 233 234 244 178 204 207 202 192 194 198 198 195 194 194 192 190 187 185 183 181 180 179 180 180 179 175 172 171 169 164 158 149 132
189 218 218 241 155 216 241 221 220 221 227 226 242 234 220 229 220 222 216 206 197 198 197 196 196 193 191 188 186 185 184 184 184 183 184 182 180 181 181 178 173 172 167 152
213 196 230 230 223 246 267 201 195 201 243 227 234 227 228 213 202 236 216 218 219 208 204 201 197 192 189 190 188 187 187 188 187 187 188 188 188 188 187 185 186 187 190 197
214 215 209 195 233 225 241 204 169 118 264 226 218 224 205 157 214 239 220 218 209 210 207 201 197 193 192 190 190 190 191 190 190 190 192 192 193 192 193 194 197 204 210 214
205 210 218 218 227 255 197 144 144 180 249 161 208 218 186 199 222 246 221 210 209 207 203 201 197 195 193 192 191 193 193 193 192 193 195 196 196 196 198 202 207 213 219 217
217 208 215 216 220 237 153 153 178 218 242 226 224 209 200 213 229 221 207 201 198 200 199 200 196 194 195 194 194 195 195 194 194 197 199 199 199 202 206 209 213 220 224 221
239 253 228 205 214 147 172 194 208 226 209 227 242 232 217 202 207 191 191 193 198 199 196 196 196 194 195 196 197 197 196 196 197 200 201 202 205 209 212 215 219 226 228 226
241 78 225 293 202 207 201 211 216 217 222 243 251 233 212 203 194 188 186 190 194 196 196 193 195 196 195 197 198 200 199 198 201 203 205 207 212 215 217 220 224 231 233 230
184 163 184 274 285 324 250 217 217 207 214 235 233 219 207 204 192 195 188 190 193 195 194 194 195 197 198 197 197 197 199 202 204 205 209 213 216 219 222 225 230 235 237 234
201 227 222 252 219 271 298 278 222 209 210 224 222 200 200 199 198 193 192 193 193 195 194 194 197 199 200 199 199 198 200 204 207 210 213 217 221 223 227 230 234 240 242 240